• In Latvia
  • List of Countries
  • For 7 days
  • Water Temperature
  • Satellite Maps
  • Weather Map
  • Weather Widgets
  • user-avatar
    Login

    Hourly Weather Khartsyzk

    Today, 22 June, Friday

    Time Temperature Precipitation Wind Pressure Humidity
    00:00 +21°C° 0 mm 3 mps 742 mmHg 62%
    01:00 +20°C° 0 mm 3 mps 742 mmHg 64%
    02:00 +20°C° 0 mm 3 mps 742 mmHg 66%
    03:00 +20°C° 0 mm 2 mps 742 mmHg 64%
    04:00 +20°C° 0 mm 3 mps 742 mmHg 65%
    05:00 +20°C° 0 mm 3 mps 742 mmHg 66%
    06:00 +20°C° 0 mm 3 mps 742 mmHg 67%
    07:00 +24°C° 0 mm 3 mps 742 mmHg 61%
    08:00 +26°C° 0 mm 3 mps 742 mmHg 56%
    09:00 +28°C° 0 mm 4 mps 742 mmHg 50%
    10:00 +29°C° 0 mm 3 mps 742 mmHg 45%
    11:00 +30°C° 0 mm 3 mps 741 mmHg 41%
    12:00 +33°C° 0 mm 3 mps 741 mmHg 36%
    13:00 +33°C° 0 mm 3 mps 741 mmHg 34%
    14:00 +34°C° 0 mm 2 mps 741 mmHg 32%
    15:00 +34°C° 0 mm 2 mps 740 mmHg 31%
    16:00 +34°C° 0 mm 2 mps 740 mmHg 33%
    17:00 +34°C° 0 mm 2 mps 740 mmHg 34%
    18:00 +34°C° 0 mm 2 mps 740 mmHg 36%
    19:00 +31°C° 0 mm 3 mps 740 mmHg 40%
    20:00 +29°C° 0 mm 3 mps 740 mmHg 44%
    21:00 +27°C° 0 mm 3 mps 740 mmHg 49%
    22:00 +26°C° 0 mm 3 mps 739 mmHg 49%
    23:00 +25°C° 0 mm 3 mps 739 mmHg 49%

    Tomorrow, 23 June, Saturday

    Time Temperature Precipitation Wind Pressure Humidity
    00:00 +25°C° 0 mm 4 mps 739 mmHg 49%
    01:00 +23°C° 0 mm 4 mps 739 mmHg 48%
    02:00 +23°C° 0 mm 4 mps 739 mmHg 47%
    03:00 +22°C° 0 mm 3 mps 739 mmHg 46%
    04:00 +22°C° 0 mm 3 mps 739 mmHg 49%
    05:00 +22°C° 0 mm 3 mps 739 mmHg 52%
    06:00 +23°C° 0 mm 2 mps 739 mmHg 54%
    07:00 +24°C° 0 mm 3 mps 739 mmHg 52%
    08:00 +25°C° 0 mm 3 mps 739 mmHg 49%
    09:00 +27°C° 0 mm 4 mps 739 mmHg 47%
    10:00 +28°C° 0.2 mm 4 mps 739 mmHg 45%
    11:00 +30°C° 0.2 mm 5 mps 738 mmHg 43%
    12:00 +32°C° 0.2 mm 5 mps 738 mmHg 42%
    13:00 +33°C° 0 mm 6 mps 738 mmHg 40%
    14:00 +33°C° 0 mm 6 mps 738 mmHg 39%
    15:00 +34°C° 0 mm 6 mps 738 mmHg 37%
    16:00 +33°C° 0 mm 6 mps 738 mmHg 43%
    17:00 +32°C° 0 mm 5 mps 737 mmHg 48%
    18:00 +29°C° 0 mm 4 mps 737 mmHg 54%
    19:00 +28°C° 0 mm 4 mps 737 mmHg 56%
    20:00 +27°C° 0 mm 3 mps 737 mmHg 58%
    21:00 +25°C° 0 mm 3 mps 737 mmHg 61%
    22:00 +24°C° 0.4 mm 3 mps 737 mmHg 67%
    23:00 +22°C° 0.4 mm 3 mps 737 mmHg 73%

    Day after tomorrow, 24 June, Sunday

    Time Temperature Precipitation Wind Pressure Humidity
    00:00 +21°C° 0.4 mm 3 mps 737 mmHg 79%
    01:00 +21°C° 0.8 mm 3 mps 737 mmHg 82%
    02:00 +21°C° 0.8 mm 3 mps 737 mmHg 84%
    03:00 +20°C° 0.8 mm 2 mps 737 mmHg 87%
    04:00 +20°C° 0.1 mm 2 mps 738 mmHg 87%
    05:00 +20°C° 0.1 mm 3 mps 738 mmHg 87%
    06:00 +20°C° 0.1 mm 3 mps 738 mmHg 87%
    07:00 +21°C° 0.4 mm 3 mps 739 mmHg 84%
    08:00 +21°C° 0.4 mm 3 mps 739 mmHg 80%
    09:00 +22°C° 0.4 mm 4 mps 739 mmHg 77%
    10:00 +22°C° 0.4 mm 4 mps 740 mmHg 74%
    11:00 +22°C° 0.4 mm 4 mps 740 mmHg 71%
    12:00 +23°C° 0.4 mm 4 mps 740 mmHg 68%
    13:00 +23°C° 0.1 mm 4 mps 741 mmHg 65%
    14:00 +25°C° 0.1 mm 4 mps 741 mmHg 61%
    15:00 +26°C° 0.1 mm 4 mps 741 mmHg 57%
    16:00 +26°C° 0 mm 4 mps 741 mmHg 57%
    17:00 +26°C° 0 mm 4 mps 741 mmHg 57%
    18:00 +25°C° 0 mm 4 mps 741 mmHg 57%
    19:00 +24°C° 0 mm 3 mps 742 mmHg 61%
    20:00 +22°C° 0 mm 3 mps 742 mmHg 65%
    21:00 +20°C° 0 mm 3 mps 742 mmHg 69%
    22:00 +19°C° 0 mm 3 mps 743 mmHg 71%
    23:00 +19°C° 0 mm 3 mps 743 mmHg 73%

    25 June, Monday

    Time Temperature Precipitation Wind Pressure Humidity
    00:00 +18°C° 0 mm 3 mps 743 mmHg 74%
    01:00 +18°C° 0 mm 3 mps 743 mmHg 76%
    02:00 +17°C° 0 mm 3 mps 743 mmHg 78%
    03:00 +17°C° 0 mm 3 mps 743 mmHg 80%
    04:00 +17°C° 0 mm 4 mps 744 mmHg 80%
    05:00 +17°C° 0 mm 4 mps 744 mmHg 80%
    06:00 +17°C° 0 mm 4 mps 744 mmHg 79%
    07:00 +19°C° 0 mm 4 mps 744 mmHg 74%
    08:00 +20°C° 0 mm 4 mps 744 mmHg 68%
    09:00 +22°C° 0 mm 4 mps 745 mmHg 62%
    10:00 +23°C° 0 mm 4 mps 745 mmHg 56%
    11:00 +25°C° 0 mm 4 mps 745 mmHg 50%
    12:00 +26°C° 0 mm 3 mps 745 mmHg 45%
    13:00 +27°C° 0 mm 3 mps 745 mmHg 42%
    14:00 +28°C° 0 mm 4 mps 745 mmHg 39%
    15:00 +28°C° 0 mm 4 mps 745 mmHg 37%
    16:00 +28°C° 0 mm 4 mps 745 mmHg 39%
    17:00 +28°C° 0 mm 4 mps 745 mmHg 40%
    18:00 +27°C° 0 mm 4 mps 745 mmHg 42%
    19:00 +25°C° 0 mm 4 mps 745 mmHg 47%
    20:00 +23°C° 0 mm 4 mps 745 mmHg 51%
    21:00 +21°C° 0 mm 3 mps 745 mmHg 56%
    22:00 +20°C° 0 mm 4 mps 745 mmHg 58%
    23:00 +20°C° 0 mm 4 mps 745 mmHg 61%

    26 June, Tuesday

    Time Temperature Precipitation Wind Pressure Humidity
    00:00 +19°C° 0 mm 4 mps 745 mmHg 63%
    01:00 +19°C° 0 mm 4 mps 745 mmHg 66%
    02:00 +18°C° 0 mm 4 mps 745 mmHg 68%
    03:00 +18°C° 0 mm 4 mps 745 mmHg 70%
    04:00 +18°C° 0 mm 4 mps 745 mmHg 70%
    05:00 +18°C° 0 mm 4 mps 745 mmHg 71%
    06:00 +18°C° 0 mm 4 mps 745 mmHg 71%
    07:00 +19°C° 0 mm 5 mps 745 mmHg 66%
    08:00 +21°C° 0 mm 5 mps 745 mmHg 60%
    09:00 +23°C° 0 mm 6 mps 745 mmHg 55%
    10:00 +25°C° 0 mm 5 mps 745 mmHg 52%
    11:00 +26°C° 0 mm 5 mps 744 mmHg 49%
    12:00 +27°C° 0 mm 5 mps 744 mmHg 46%
    13:00 +28°C° 0 mm 5 mps 744 mmHg 44%
    14:00 +29°C° 0 mm 5 mps 744 mmHg 43%
    15:00 +29°C° 0 mm 5 mps 743 mmHg 42%
    16:00 +29°C° 0 mm 5 mps 743 mmHg 43%
    17:00 +29°C° 0 mm 5 mps 743 mmHg 45%
    18:00 +28°C° 0 mm 5 mps 743 mmHg 47%
    19:00 +27°C° 0 mm 5 mps 743 mmHg 52%
    20:00 +25°C° 0 mm 5 mps 743 mmHg 57%
    21:00 +23°C° 0 mm 4 mps 742 mmHg 62%
    22:00 +22°C° 0 mm 4 mps 742 mmHg 65%
    23:00 +21°C° 0 mm 4 mps 742 mmHg 68%

    27 June, Wednesday

    Time Temperature Precipitation Wind Pressure Humidity
    00:00 +21°C° 0 mm 5 mps 742 mmHg 71%
    01:00 +20°C° 0 mm 5 mps 742 mmHg 73%
    02:00 +20°C° 0 mm 5 mps 741 mmHg 75%
    03:00 +20°C° 0 mm 5 mps 741 mmHg 78%
    04:00 +20°C° 0 mm 5 mps 741 mmHg 79%
    05:00 +20°C° 0 mm 5 mps 741 mmHg 79%
    06:00 +20°C° 0 mm 5 mps 741 mmHg 80%
    07:00 +22°C° 0.3 mm 5 mps 741 mmHg 76%
    08:00 +23°C° 0.3 mm 5 mps 740 mmHg 72%
    09:00 +26°C° 0.3 mm 6 mps 740 mmHg 67%
    10:00 +28°C° 0 mm 6 mps 740 mmHg 62%
    11:00 +29°C° 0 mm 6 mps 740 mmHg 57%
    12:00 +32°C° 0 mm 7 mps 740 mmHg 52%
    13:00 +33°C° 0 mm 6 mps 739 mmHg 48%
    14:00 +35°C° 0 mm 6 mps 739 mmHg 43%
    15:00 +36°C° 0 mm 5 mps 739 mmHg 38%
    16:00 +36°C° 0 mm 5 mps 738 mmHg 37%
    17:00 +36°C° 0 mm 5 mps 738 mmHg 36%
    18:00 +36°C° 0 mm 4 mps 737 mmHg 35%
    19:00 +34°C° 0 mm 4 mps 737 mmHg 40%
    20:00 +32°C° 0 mm 4 mps 737 mmHg 45%
    21:00 +29°C° 0 mm 4 mps 737 mmHg 50%
    22:00 +28°C° 0 mm 3 mps 737 mmHg 51%
    23:00 +27°C° 0 mm 3 mps 737 mmHg 53%
    Show more